Weather History for Sparta, WI

Change the Weather History Date:

Saturday, May 4, 2013

  Actual Average Record
Temperature  
Mean Temperature 53 °F -  
Max Temperature 69 °F 65 °F 87 °F (1949)
Min Temperature 37 °F 38 °F 20 °F (2011)
Degree Days  
Heating Degree Days 12    
Growing Degree Days 3 (Base 50)    
Moisture  
Dew Point 45 °F    
Average Humidity 78    
Maximum Humidity 100    
Minimum Humidity 49    
Precipitation  
Precipitation 0.08 in - - ()
Sea Level Pressure  
Sea Level Pressure 30.05 in    
Wind  
Wind Speed 5 mph (NNE)    
Max Wind Speed 12 mph    
Max Gust Speed 16 mph    
Visibility 10 miles    
Events Rain , Thunderstorm    
Averages and records for this station are not official NWS values.
T = Trace of Precipitation, MM = Missing Value Source: NWS Daily Summary

Daily Weather History Graph

Daily Weather History Graph

Search for Another Location

Airport:

Trip Planner

Search our weather history database for the weather conditions in past years. The results will help you decide how hot, cold, wet, or windy it might be!

Date:

Astronomy

May. 04, 2013 Rise Set
Actual Time 5:50 AM CDT 8:10 PM CDT
Civil Twilight 5:18 AM CDT 8:42 PM CDT
Nautical Twilight 4:38 AM CDT 9:22 PM CDT
Astronomical Twilight 3:54 AM CDT 10:06 PM CDT
Moon 2:59 AM CDT (5/4) 2:58 PM CDT (5/4)
Length of Visible Light 15h 24m
Length of Day
14h 19m
Waning Crescent, 27% of the Moon is Illuminated
May 4
Waning Crescent
May 9
New
May 17
First Quarter
May 24
Full
May 31
Last Quarter

Hourly Weather History & Observations

Time (CDT) Temp. Windchill Dew Point Humidity Pressure Visibility Wind Dir Wind Speed Gust Speed Precip Events Conditions
12:15 AM 37.4 °F 32.1 °F 37.4 °F 100% 30.05 in 10.0 mi North 6.9 mph - N/A   Overcast
12:35 AM 37.4 °F 33.8 °F 37.4 °F 100% 30.06 in 10.0 mi NNE 4.6 mph - N/A   Overcast
12:55 AM 37.4 °F 33.8 °F 37.4 °F 100% 30.06 in 10.0 mi NNE 4.6 mph - N/A   Overcast
1:15 AM 37.4 °F 32.8 °F 37.4 °F 100% 30.05 in 7.0 mi NNE 5.8 mph - N/A Rain Rain
1:35 AM 37.4 °F 32.1 °F 37.4 °F 100% 30.03 in 7.0 mi NE 6.9 mph - N/A Rain Light Rain
1:55 AM 39.2 °F 35.9 °F 39.2 °F 100% 30.03 in 10.0 mi NNE 4.6 mph - N/A Rain , Thunderstorm Light Thunderstorms and Rain
2:15 AM 39.2 °F - 39.2 °F 100% 30.04 in 10.0 mi Calm Calm - N/A   Overcast
2:35 AM 39.2 °F - 39.2 °F 100% 30.04 in 7.0 mi Calm Calm - N/A Rain Light Rain
2:55 AM 39.2 °F 34.2 °F 39.2 °F 100% 30.02 in 2.5 mi North 6.9 mph - 0.07 in Rain Heavy Rain
3:15 AM 41.0 °F 35.8 °F 39.2 °F 93% 30.02 in 7.0 mi NNE 8.1 mph - 0.01 in Thunderstorm Thunderstorm
3:35 AM 41.0 °F - 41.0 °F 100% 30.03 in 7.0 mi Calm Calm - 0.01 in   Overcast
3:55 AM 41.0 °F - 41.0 °F 100% 30.03 in 10.0 mi Calm Calm - 0.01 in   Overcast
4:15 AM 41.0 °F 38.0 °F 41.0 °F 100% 30.03 in 10.0 mi NNE 4.6 mph - N/A   Overcast
4:35 AM 41.0 °F - 39.2 °F 93% 30.05 in 10.0 mi Calm Calm - N/A   Overcast
4:55 AM 41.0 °F - 39.2 °F 93% 30.04 in 10.0 mi Calm Calm - N/A   Overcast
5:15 AM 41.0 °F 39.0 °F 39.2 °F 93% 30.04 in 10.0 mi North 3.5 mph - N/A   Overcast
5:35 AM 41.0 °F 39.0 °F 41.0 °F 100% 30.05 in 10.0 mi NE 3.5 mph - N/A   Overcast
5:55 AM 41.0 °F 38.0 °F 41.0 °F 100% 30.05 in 10.0 mi NNE 4.6 mph - N/A   Overcast
6:15 AM 41.0 °F 39.0 °F 41.0 °F 100% 30.04 in 10.0 mi NNE 3.5 mph - N/A   Overcast
6:35 AM 41.0 °F 38.0 °F 41.0 °F 100% 30.05 in 7.0 mi NNE 4.6 mph - N/A   Overcast
6:55 AM 41.0 °F 38.0 °F 41.0 °F 100% 30.06 in 10.0 mi NE 4.6 mph - N/A   Overcast
7:15 AM 41.0 °F 38.0 °F 41.0 °F 100% 30.07 in 10.0 mi NNE 4.6 mph - N/A   Overcast
7:35 AM 41.0 °F 39.0 °F 41.0 °F 100% 30.06 in 7.0 mi North 3.5 mph - N/A   Overcast
7:55 AM 42.8 °F 40.1 °F 42.8 °F 100% 30.07 in 7.0 mi NNE 4.6 mph - N/A   Overcast
8:15 AM 42.8 °F 40.1 °F 42.8 °F 100% 30.05 in 7.0 mi NNW 4.6 mph - N/A   Overcast
8:35 AM 44.6 °F 41.4 °F 42.8 °F 93% 30.06 in 10.0 mi NNE 5.8 mph - N/A   Overcast
8:55 AM 46.4 °F 42.9 °F 44.6 °F 93% 30.06 in 10.0 mi NE 6.9 mph - N/A   Overcast
9:15 AM 48.2 °F - 44.6 °F 87% 30.06 in 10.0 mi ENE 8.1 mph - N/A   Mostly Cloudy
9:35 AM 50.0 °F - 44.6 °F 82% 30.06 in 10.0 mi ENE 4.6 mph - N/A   Overcast
9:55 AM 50.0 °F - 44.6 °F 82% 30.06 in 10.0 mi ENE 6.9 mph - N/A   Overcast
10:15 AM 51.8 °F - 44.6 °F 76% 30.07 in 10.0 mi East 6.9 mph - N/A   Scattered Clouds
10:35 AM 53.6 °F - 44.6 °F 72% 30.07 in 10.0 mi NE 4.6 mph - N/A   Clear
10:55 AM 55.4 °F - 46.4 °F 72% 30.07 in 10.0 mi ESE 8.1 mph - N/A   Clear
11:15 AM 57.2 °F - 46.4 °F 67% 30.07 in 10.0 mi East 3.5 mph - N/A   Clear
11:35 AM 59.0 °F - 46.4 °F 63% 30.07 in 10.0 mi ESE 4.6 mph - N/A   Clear
11:55 AM 62.6 °F - 48.2 °F 59% 30.07 in 10.0 mi ESE 9.2 mph - N/A   Clear
12:15 PM 62.6 °F - 48.2 °F 59% 30.07 in 10.0 mi East 8.1 mph - N/A   Scattered Clouds
12:35 PM 62.6 °F - 48.2 °F 59% 30.07 in 10.0 mi ESE 4.6 mph - N/A   Scattered Clouds
12:55 PM 62.6 °F - 50.0 °F 63% 30.07 in 10.0 mi East 5.8 mph - N/A   Scattered Clouds
1:15 PM 62.6 °F - 50.0 °F 63% 30.07 in 10.0 mi Calm Calm - N/A   Scattered Clouds
1:35 PM 64.4 °F - 50.0 °F 59% 30.06 in 10.0 mi NE 4.6 mph - N/A   Clear
1:55 PM 64.4 °F - 50.0 °F 59% 30.05 in 10.0 mi Calm Calm - N/A   Clear
2:15 PM 64.4 °F - 50.0 °F 59% 30.05 in 10.0 mi ENE 4.6 mph - N/A   Clear
2:35 PM 64.4 °F - 50.0 °F 59% 30.04 in 10.0 mi NNE 4.6 mph - N/A   Clear
2:55 PM 66.2 °F - 50.0 °F 56% 30.03 in 10.0 mi NNE 3.5 mph - N/A   Clear
3:15 PM 68.0 °F - 50.0 °F 52% 30.03 in 10.0 mi NNE 4.6 mph - N/A   Clear
3:35 PM 68.0 °F - 50.0 °F 52% 30.02 in 10.0 mi Calm Calm - N/A   Clear
3:55 PM 68.0 °F - 50.0 °F 52% 30.02 in 10.0 mi North 5.8 mph - N/A   Scattered Clouds
4:15 PM 68.0 °F - 50.0 °F 52% 30.02 in 10.0 mi North 8.1 mph - N/A   Clear
4:35 PM 69.8 °F - 50.0 °F 49% 30.02 in 10.0 mi North 9.2 mph - N/A   Scattered Clouds
4:55 PM 69.8 °F - 50.0 °F 49% 30.02 in 10.0 mi NNE 8.1 mph - N/A   Mostly Cloudy
5:15 PM 69.8 °F - 50.0 °F 49% 30.02 in 10.0 mi NE 5.8 mph - N/A   Mostly Cloudy
5:35 PM 68.0 °F - 50.0 °F 52% 30.02 in 10.0 mi Calm Calm - N/A   Scattered Clouds
5:55 PM 68.0 °F - 50.0 °F 52% 30.03 in 10.0 mi Calm Calm - N/A   Mostly Cloudy
6:15 PM 68.0 °F - 51.8 °F 56% 30.03 in 10.0 mi ENE 3.5 mph - N/A   Mostly Cloudy
6:35 PM 68.0 °F - 51.8 °F 56% 30.03 in 10.0 mi ENE 3.5 mph - N/A   Scattered Clouds
6:55 PM 66.2 °F - 51.8 °F 60% 30.03 in 10.0 mi North 6.9 mph - N/A   Clear
7:15 PM 64.4 °F - 51.8 °F 64% 30.04 in 10.0 mi North 5.8 mph - N/A   Scattered Clouds
7:35 PM 64.4 °F - 51.8 °F 64% 30.05 in 10.0 mi North 11.5 mph - N/A   Scattered Clouds
7:55 PM 60.8 °F - 51.8 °F 72% 30.05 in 10.0 mi North 9.2 mph - N/A   Clear
8:15 PM 60.8 °F - 51.8 °F 72% 30.06 in 10.0 mi North 10.4 mph - N/A   Clear
8:35 PM 59.0 °F - 50.0 °F 72% 30.07 in 10.0 mi North 10.4 mph - N/A   Clear
8:55 PM 57.2 °F - 50.0 °F 77% 30.08 in 10.0 mi NNW 9.2 mph 16.1 mph N/A   Clear
9:15 PM 55.4 °F - 48.2 °F 77% 30.08 in 10.0 mi North 10.4 mph - N/A   Clear
9:35 PM 53.6 °F - 46.4 °F 77% 30.09 in 10.0 mi NNW 5.8 mph - N/A   Clear
9:55 PM 53.6 °F - 46.4 °F 77% 30.09 in 10.0 mi NNW 5.8 mph - N/A   Clear
10:15 PM 53.6 °F - 46.4 °F 77% 30.09 in 10.0 mi NNW 4.6 mph - N/A   Clear
10:35 PM 51.8 °F - 44.6 °F 76% 30.09 in 10.0 mi NNW 5.8 mph - N/A   Clear
10:55 PM 51.8 °F - 44.6 °F 76% 30.10 in 10.0 mi NNW 3.5 mph - N/A   Clear
11:15 PM 51.8 °F - 42.8 °F 71% 30.10 in 10.0 mi NNW 3.5 mph - N/A   Clear
11:35 PM 50.0 °F - 42.8 °F 76% 30.10 in 10.0 mi NNW 3.5 mph - N/A   Clear
11:55 PM 50.0 °F - 42.8 °F 76% 30.10 in 10.0 mi NNW 3.5 mph - N/A   Clear